sat.trackr.live / text

‹ back to catalog

STARLINK-3387

NORAD 51125 · 2022-005X

PAYLOAD ACTIVE UNKNOWN

§ Identity

Operator
Country
US
Launch date
2022-01-19
Launch site
AFETR
Launch vehicle
Mass (kg)
RCS (m²)

Purposes: comms

External: N2YO · Heavens-Above · Gunter

§ Orbital elements

Epoch: 2026-09-20T04:00:03.000096Z

Period
93.85 min
Inclination
53.1599°
Eccentricity
0.0001061
Mean motion
15.34388465 rev/d
Perigee alt
462.0 km
Apogee alt
463.5 km
Semi-major
6,840.9 km
B*
5.5507e-4
RAAN
131.5742°
Arg perigee
73.1731°
Mean anomaly
205.4665°
Rev number
586

§ Raw data

STARLINK-33871 51125U 22005X   26263.16670139  .00018417  00000+0  55507-3 0  99902 51125  53.1599 131.5742 0001061  73.1731 205.4665 15.34388465  5865

JSON: /api/v1/satellites/51125 · /tle

For live sub-satellite position, see the globe view (requires WebGL).

§ Visibility from observer

Set your observer location to see the next 7 days of passes ≥ 10°. The values pass through the URL so the page stays shareable.

No JS? Fill the form by hand. The geolocation button needs JavaScript.